Stevens Point, WI

11:14 PM CST on December 15, 2019 (GMT -0600)
Stevens Point Municipal

Weather History for KSTE - October, 2019

Change the Weather History Date:

Tuesday, October 1, 2019

  Actual Average Record
Temperature  
Mean Temperature 63 °F -  
Max Temperature 74 °F 65 °F 82 °F (1971)
Min Temperature 52 °F 43 °F 27 °F (1974)
Degree Days  
Heating Degree Days 2    
Growing Degree Days 13 (Base 50)    
Moisture  
Dew Point 63 °F    
Average Humidity 98    
Maximum Humidity 100    
Minimum Humidity 80    
Precipitation  
Precipitation 1.06 in - - ()
Sea Level Pressure  
Sea Level Pressure 29.91 in    
Wind  
Wind Speed 7 mph (North)    
Max Wind Speed 15 mph    
Max Gust Speed 20 mph    
Visibility 9 miles    
Events Rain , Thunderstorm    
Averages and records for this station are not official NWS values.
T = Trace of Precipitation, MM = Missing Value Source: NWS Daily Summary

Daily Weather History Graph

Daily Weather History Graph

Search for Another Location

Airport or City:

Astronomy

Oct. 01, 2019 Rise Set
Actual Time 6:55 AM CDT 6:39 PM CDT
Civil Twilight 6:26 AM CDT 7:08 PM CDT
Nautical Twilight 5:52 AM CDT 7:41 PM CDT
Astronomical Twilight 5:18 AM CDT 8:16 PM CDT
Moon 10:18 AM CDT (10/1) 8:44 PM CDT (10/1)
Length of Visible Light 12h 41m
Length of Day
11h 43m
Waxing Crescent, 12% of the Moon is Illuminated
Oct 1
Waxing Crescent
Oct 5
First Quarter
Oct 13
Full
Oct 21
Last Quarter
Oct 27
New

Hourly Weather History & Observations

Time (CDT) Temp. Dew Point Humidity Pressure Visibility Wind Dir Wind Speed Gust Speed Precip Events Conditions
12:15 AM 74.1 °F 68.2 °F 82% 29.82 in 10.0 mi SW 9.2 mph - N/A   Clear
12:35 AM 74.8 °F 68.2 °F 80% 29.83 in 10.0 mi SW 12.7 mph 16.1 mph N/A   Scattered Clouds
12:55 AM 74.8 °F 68.2 °F 80% 29.83 in 10.0 mi SW 13.8 mph 18.4 mph N/A   Scattered Clouds
1:15 AM 74.5 °F 68.2 °F 81% 29.84 in 10.0 mi SW 12.7 mph 18.4 mph N/A   Scattered Clouds
1:35 AM 73.9 °F 68.2 °F 82% 29.83 in 10.0 mi SW 8.1 mph - N/A   Scattered Clouds
1:55 AM 73.4 °F 68.2 °F 84% 29.83 in 10.0 mi SW 8.1 mph - N/A   Clear
2:15 AM 72.9 °F 68.9 °F 87% 29.86 in 10.0 mi SW 8.1 mph - N/A   Clear
2:35 AM 72.5 °F 68.9 °F 88% 29.85 in 10.0 mi West 3.5 mph - N/A   Clear
2:55 AM 70.9 °F 69.8 °F 96% 29.85 in 10.0 mi SW 4.6 mph - N/A   Clear
3:15 AM 70.2 °F 70.0 °F 99% 29.84 in 10.0 mi Calm Calm - N/A   Clear
3:35 AM 69.6 °F 69.6 °F 100% 29.85 in 10.0 mi WSW 3.5 mph - N/A   Clear
3:55 AM 69.1 °F 69.1 °F 100% 29.84 in 10.0 mi SSW 3.5 mph - N/A   Clear
4:15 AM 68.4 °F 68.4 °F 100% 29.85 in 10.0 mi SSW 4.6 mph - N/A   Scattered Clouds
4:35 AM 68.4 °F 68.4 °F 100% 29.83 in 10.0 mi Calm Calm - N/A   Overcast
4:55 AM 68.2 °F 68.2 °F 100% 29.83 in 7.0 mi Calm Calm - N/A   Overcast
5:15 AM 70.0 °F 70.0 °F 100% 29.87 in 10.0 mi West 3.5 mph - N/A   Overcast
5:35 AM 70.2 °F 70.2 °F 100% 29.87 in 10.0 mi Calm Calm - N/A   Overcast
5:55 AM 70.0 °F 70.0 °F 100% 29.89 in 10.0 mi WSW 4.6 mph - N/A   Overcast
6:15 AM 70.0 °F 70.0 °F 100% 29.89 in 10.0 mi West 3.5 mph - N/A   Overcast
6:35 AM 69.8 °F 69.8 °F 100% 29.90 in 10.0 mi Calm Calm - N/A   Overcast
6:55 AM 68.9 °F 68.9 °F 100% 29.90 in 4.0 mi Calm Calm - 0.10 in Rain , Thunderstorm Heavy Thunderstorms and Rain
7:15 AM 68.9 °F 68.9 °F 100% 29.94 in 7.0 mi WNW 6.9 mph - 0.02 in Rain Rain
7:35 AM 68.0 °F 68.0 °F 100% 29.93 in 5.0 mi NW 9.2 mph 19.6 mph 0.09 in Rain Rain
7:55 AM 67.1 °F 67.1 °F 100% 29.89 in 10.0 mi North 11.5 mph 19.6 mph 0.12 in Rain Rain
8:15 AM 65.5 °F 65.5 °F 100% 29.87 in 10.0 mi NE 6.9 mph - 0.01 in Rain Light Rain
8:35 AM 65.5 °F 65.5 °F 100% 29.88 in 10.0 mi NNE 4.6 mph - 0.01 in   Clear
8:55 AM 65.3 °F 65.3 °F 100% 29.91 in 10.0 mi North 4.6 mph - 0.01 in   Mostly Cloudy
9:15 AM 65.3 °F 65.3 °F 100% 29.92 in 4.0 mi Calm Calm - 0.02 in Rain Rain
9:35 AM 64.8 °F 64.8 °F 100% 29.93 in 7.0 mi East 3.5 mph - 0.05 in Rain Light Rain
9:55 AM 64.9 °F 64.9 °F 100% 29.94 in 10.0 mi Calm Calm - 0.06 in Rain Light Rain
10:15 AM 64.8 °F 64.8 °F 100% 29.93 in 10.0 mi NE 3.5 mph - N/A Rain Light Rain
10:35 AM 64.9 °F 64.9 °F 100% 29.91 in 10.0 mi NE 4.6 mph - 0.01 in Rain Light Rain
10:55 AM 64.9 °F 64.9 °F 100% 29.90 in 10.0 mi ENE 8.1 mph - 0.01 in Rain Light Rain
11:15 AM 64.8 °F 64.8 °F 100% 29.93 in 10.0 mi North 3.5 mph - 0.01 in Rain Light Rain
11:35 AM 64.8 °F 64.8 °F 100% 29.98 in 10.0 mi WNW 3.5 mph - 0.01 in Rain Light Rain
11:55 AM 64.0 °F 64.0 °F 100% 29.98 in 10.0 mi WNW 4.6 mph - 0.01 in Rain Light Rain
12:15 PM 63.5 °F 63.5 °F 100% 29.96 in 4.0 mi North 5.8 mph - N/A Rain Rain
12:55 PM 63.1 °F 63.1 °F 100% 29.89 in 10.0 mi NE 9.2 mph - 0.04 in Rain Light Rain
1:15 PM 63.9 °F 63.9 °F 100% 29.94 in 10.0 mi NNW 5.8 mph - N/A   Overcast
1:35 PM 64.4 °F 64.4 °F 100% 29.95 in 10.0 mi NW 3.5 mph - N/A Rain Light Rain
1:55 PM 64.8 °F 64.8 °F 100% 29.95 in 10.0 mi NNW 4.6 mph - N/A   Overcast
2:15 PM 64.2 °F 64.2 °F 100% 29.95 in 10.0 mi North 8.1 mph - N/A   Overcast
2:35 PM 63.5 °F 63.5 °F 100% 29.93 in 3.0 mi NNE 6.9 mph - N/A   Drizzle
2:55 PM 63.5 °F 63.5 °F 100% 29.94 in 7.0 mi North 6.9 mph - N/A   Overcast
3:15 PM 63.1 °F 63.1 °F 100% 29.94 in 10.0 mi NNE 8.1 mph - N/A   Overcast
3:35 PM 62.2 °F 61.7 °F 98% 29.91 in 10.0 mi NE 10.4 mph - N/A   Overcast
3:55 PM 61.7 °F 61.0 °F 97% 29.94 in 10.0 mi NNE 9.2 mph - N/A   Overcast
4:15 PM 61.3 °F 61.2 °F 99% 29.93 in 10.0 mi NNE 10.4 mph - N/A   Overcast
4:35 PM 60.8 °F 60.8 °F 100% 29.96 in 10.0 mi NNW 8.1 mph - N/A Rain Light Rain
4:55 PM 59.2 °F 59.2 °F 100% 29.91 in 4.0 mi NE 11.5 mph - 0.14 in Rain Light Rain
5:15 PM 59.0 °F 59.0 °F 100% 29.92 in 10.0 mi NNE 11.5 mph - N/A   Overcast
5:35 PM 58.5 °F 58.5 °F 100% 29.94 in 10.0 mi NNE 9.2 mph 16.1 mph N/A Rain , Thunderstorm Light Thunderstorms and Rain
5:55 PM 58.1 °F 58.1 °F 100% 29.94 in 10.0 mi NE 8.1 mph - N/A Rain Light Rain
6:15 PM 58.1 °F 58.1 °F 100% 29.94 in 10.0 mi NNE 11.5 mph - N/A Rain Light Rain
6:35 PM 57.6 °F 57.6 °F 100% 29.93 in 10.0 mi NNE 11.5 mph - 0.01 in Rain Light Rain
6:55 PM 57.6 °F 57.6 °F 100% 29.94 in 10.0 mi NNE 10.4 mph - 0.02 in   Overcast
7:15 PM 57.4 °F 57.4 °F 100% 29.94 in 5.0 mi NNE 10.4 mph 17.3 mph 0.06 in Rain Heavy Rain
7:35 PM 57.2 °F 57.2 °F 100% 29.93 in 10.0 mi NE 10.4 mph - 0.08 in Rain Light Rain
7:55 PM 56.8 °F 56.8 °F 100% 29.93 in 10.0 mi NE 11.5 mph - 0.11 in Rain Light Rain
8:15 PM 56.7 °F 56.7 °F 100% 29.93 in 10.0 mi NE 8.1 mph - 0.03 in Rain Rain
8:35 PM 56.5 °F 56.5 °F 100% 29.94 in 4.0 mi NE 8.1 mph - 0.12 in Rain Heavy Rain
8:55 PM 56.5 °F 56.5 °F 100% 29.94 in 10.0 mi NE 9.2 mph 18.4 mph 0.17 in Rain Light Rain
9:15 PM 56.3 °F 56.3 °F 100% 29.94 in 10.0 mi ENE 15.0 mph 18.4 mph N/A Rain Light Rain
9:35 PM 55.0 °F 55.0 °F 100% 29.97 in 7.0 mi North 10.4 mph - 0.04 in Rain Rain
9:55 PM 53.6 °F 53.6 °F 100% 29.98 in 4.0 mi North 9.2 mph - 0.17 in Rain Heavy Rain
10:15 PM 52.9 °F 52.9 °F 100% 29.97 in 10.0 mi NE 9.2 mph - 0.02 in Rain Light Rain
10:35 PM 52.9 °F 52.9 °F 100% 29.97 in 10.0 mi NE 8.1 mph - 0.03 in Rain Rain
10:55 PM 53.2 °F 53.2 °F 100% 29.96 in 10.0 mi ENE 5.8 mph - 0.04 in Rain Rain
11:15 PM 53.6 °F 53.6 °F 100% 29.96 in 10.0 mi NE 9.2 mph - 0.02 in Rain Rain
11:35 PM 54.0 °F 54.0 °F 100% 29.96 in 10.0 mi ENE 11.5 mph - 0.04 in Rain Light Rain
11:55 PM 53.6 °F 53.6 °F 100% 29.97 in 10.0 mi NE 13.8 mph 18.4 mph 0.06 in Rain Light Rain